Terminal Aerodrome Forecast
Issued by NWS North Platte, NE

Home | Current Version | Previous Version | Graphics & Text | Print | Product List | Glossary On
Versions: 1 2 3 4 5 6 7 8 9 10 11 12 13 14 15 16 17
000
FTUS43 KLBF 210520
TAFVTN
TAF
KVTN 210520Z 2106/2206 07005KT P6SM SCT045
     FM210800 07005KT P6SM BKN020
     FM211000 07004KT 6SM BR BKN015
     FM211200 07004KT 3SM BR BKN008
     FM211500 08006KT P6SM BKN010
     FM211900 05005KT P6SM BKN035
     FM220000 02008KT P6SM SCT120
     FM220400 01004KT P6SM SCT200=

USA.gov is the U.S. government's official web portal to all federal, state and local government web resources and services.